N711JM TNCM-TFFJ

Flight info

Callsign N711JM
Flight time 0h 4m
Altitude 1500
Route DCT
Aircraft C172/L-SA/C

Departure

Time 2026-05-04 14:37
Airport Princess Juliana International Airport (TNCM)

Arrival

Time 2026-05-04 14:41
Airport St. Jean Airport (TFFJ)
Time Latitude Longitude Altitude Speed Heading
2026-05-04 14:37 17.92285 -62.90803 1475 ft 98 kts 163°
2026-05-04 14:37 17.91616 -62.90711 1485 ft 96 kts 164°
2026-05-04 14:38 17.90956 -62.90624 1481 ft 95 kts 164°
2026-05-04 14:38 17.90357 -62.90440 1465 ft 81 kts 116°
2026-05-04 14:38 17.90149 -62.89923 1452 ft 77 kts 102°
2026-05-04 14:38 17.89976 -62.89376 1443 ft 74 kts 98°
2026-05-04 14:39 17.89832 -62.88837 1368 ft 81 kts 101°
2026-05-04 14:39 17.89656 -62.88300 1268 ft 76 kts 104°
2026-05-04 14:39 17.89552 -62.87778 1139 ft 72 kts 76°
2026-05-04 14:40 17.89779 -62.86859 1044 ft 53 kts 68°
2026-05-04 14:40 17.89937 -62.86479 972 ft 56 kts 66°
2026-05-04 14:40 17.90142 -62.86075 825 ft 69 kts 64°
2026-05-04 14:40 17.90300 -62.85602 640 ft 63 kts 72°
2026-05-04 14:41 17.90398 -62.85157 384 ft 63 kts 75°
2026-05-04 14:41 17.90433 -62.84676 118 ft 70 kts 86°
2026-05-04 14:41 17.90450 -62.84109 14 ft 4 kts 130°
2026-05-04 14:42 17.90441 -62.84273 27 ft 28 kts 269°
2026-05-04 14:42 17.90433 -62.84385 33 ft 5 kts 193°
2026-05-04 14:42 17.90394 -62.84394 35 ft 4 kts 212°
2026-05-04 14:43 17.90378 -62.84419 36 ft 2 kts 242°
2026-05-04 14:43 17.90374 -62.84439 38 ft 4 kts 276°
2026-05-04 14:43 17.90374 -62.84446 38 ft 0 kts 265°